This is the latest recevied weather packets stored in our database for station/object KQ4OSL. If no packets are shown the sender has not sent any weather packets the latest 10 day(s).
| Time | Temp. | Humidity | Pressure | Rain* | Wind** | Luminosity | Snow |
|---|---|---|---|---|---|---|---|
| 1787957695 | 28.33° C | 76% | 1018.1 hPa | 0 mm | - | 98 W/m² | - |
| 1787957391 | 28.33° C | 77% | 1018 hPa | 0 mm | - | 98 W/m² | - |
| 1787957090 | 28.89° C | 78% | 1018.2 hPa | 0 mm | - | 95 W/m² | - |
| 1787956785 | 28.89° C | 77% | 1018.1 hPa | 0 mm | - | 95 W/m² | - |
| 1787956480 | 28.89° C | 76% | 1018.3 hPa | 0 mm | - | 89 W/m² | - |
| 1787956181 | 28.89° C | 75% | 1018.3 hPa | 0 mm | - | 81 W/m² | - |
| 1787955880 | 29.44° C | 74% | 1018.3 hPa | 0 mm | - | 91 W/m² | - |
| 1787955576 | 30° C | 71% | 1018.2 hPa | 0 mm | - | 93 W/m² | - |
| 1787955272 | 30.56° C | 67% | 1018.1 hPa | 0 mm | - | 104 W/m² | - |
| 1787954966 | 31.11° C | 66% | 1017.9 hPa | 0 mm | - | 113 W/m² | - |
| 1787954662 | 31.11° C | 63% | 1017.7 hPa | 0 mm | - | 133 W/m² | - |
| 1787954361 | 31.11° C | 63% | 1017.6 hPa | 0 mm | - | 117 W/m² | - |
| 1787954057 | 31.67° C | 62% | 1017.7 hPa | 0 mm | - | 113 W/m² | - |
| 1787953755 | 31.67° C | 61% | 1017.7 hPa | 0 mm | - | 206 W/m² | - |
| 1787953451 | 31.67° C | 59% | 1017.8 hPa | 0 mm | - | 232 W/m² | - |
| 1787953148 | 31.67° C | 58% | 1017.8 hPa | 0 mm | - | 261 W/m² | - |
| 1787952847 | 32.22° C | 60% | 1017.8 hPa | 0 mm | - | 263 W/m² | - |
| 1787952542 | 32.22° C | 59% | 1017.8 hPa | 0 mm | - | 282 W/m² | - |
| 1787952240 | 31.67° C | 59% | 1017.9 hPa | 0 mm | - | 302 W/m² | - |
| 1787951937 | 31.67° C | 59% | 1017.9 hPa | 0 mm | - | 320 W/m² | - |
| 1787951633 | 31.67° C | 59% | 1017.9 hPa | 0 mm | - | 337 W/m² | - |
| 1787951328 | 32.22° C | 58% | 1017.7 hPa | 0 mm | - | 341 W/m² | - |
| 1787951024 | 32.22° C | 57% | 1017.9 hPa | 0 mm | - | 358 W/m² | - |
| 1787950719 | 32.22° C | 60% | 1017.9 hPa | 0 mm | - | 372 W/m² | - |
| 1787950415 | 33.33° C | 60% | 1017.8 hPa | 0 mm | - | 389 W/m² | - |
* Rain latest hour (hover to see other rain measurements)
** Current wind speed in m/s (hover to see current wind gust speed)